Weather History for Kimball, NE

Change the Weather History Date:

Monday, July 22, 2013

  Actual Average (KSNY) Record (KSNY)
Temperature  
Mean Temperature 76 °F 76 °F  
Max Temperature 92 °F 91 °F 103 °F (2005)
Min Temperature 60 °F 61 °F 43 °F (1990)
Degree Days  
Heating Degree Days 0 0  
Month to date heating degree days 0  
Since 1 June heating degree days 59  
Since 1 July heating degree days 0  
Cooling Degree Days 11 11  
Month to date cooling degree days 222  
Year to date cooling degree days 381  
Since 1 June cooling degree days 359  
Growing Degree Days 26 (Base 50)    
Moisture  
Dew Point 57 °F    
Average Humidity 60    
Maximum Humidity 94    
Minimum Humidity 23    
Precipitation  
Precipitation 0.00 in 0.09 in 1.25 in (1950)
Month to date precipitation 2.14  
Year to date precipitation 12.08  
Sea Level Pressure  
Sea Level Pressure 29.98 in    
Wind  
Wind Speed 7 mph (East)    
Max Wind Speed 15 mph    
Max Gust Speed 25 mph    
Visibility 9 miles    
Events      
T = Trace of Precipitation, MM = Missing Value Source: NWS Daily Summary

Daily Weather History Graph

Daily Weather History Graph

Search for Another Location

Airport:

Trip Planner

Search our weather history database for the weather conditions in past years. The results will help you decide how hot, cold, wet, or windy it might be!

Date:

Astronomy

Jul. 22, 2013 Rise Set
Actual Time 6:41 AM CDT 9:20 PM CDT
Civil Twilight 6:09 AM CDT 9:52 PM CDT
Nautical Twilight 5:29 AM CDT 10:32 PM CDT
Astronomical Twilight 4:43 AM CDT 11:17 PM CDT
Moon 9:07 PM CDT (7/22) 6:40 AM CDT (7/22)
Length of Visible Light 15h 43m
Length of Day
14h 39m
Full, 100% of the Moon is Illuminated
Jul 22
Full
Jul 22
Full
Jul 29
Last Quarter
Aug 6
New
Aug 14
First Quarter

Hourly Weather History & Observations

Time (CDT) Temp. Heat Index Dew Point Humidity Pressure Visibility Wind Dir Wind Speed Gust Speed Precip Events Conditions
12:15 AM 68.7 °F - 59.5 °F 72% 29.94 in 10.0 mi ESE 8.1 mph - N/A   Clear
12:35 AM 66.4 °F - 59.2 °F 78% 29.94 in 10.0 mi East 4.6 mph - N/A   Clear
12:55 AM 63.5 °F - 57.6 °F 81% 29.94 in 10.0 mi East 3.5 mph - N/A   Clear
1:15 AM 65.1 °F - 59.0 °F 81% 29.94 in 10.0 mi ESE 4.6 mph - N/A   Clear
1:35 AM 63.7 °F - 58.6 °F 84% 29.94 in 10.0 mi ESE 5.8 mph - N/A   Clear
1:55 AM 66.9 °F - 59.5 °F 77% 29.95 in 10.0 mi East 9.2 mph 25.3 mph N/A   Clear
2:15 AM 67.6 °F - 59.9 °F 76% 29.95 in 10.0 mi East 11.5 mph - N/A   Clear
2:35 AM 67.6 °F - 60.1 °F 77% 29.94 in 10.0 mi ENE 11.5 mph - N/A   Clear
2:55 AM 66.4 °F - 60.1 °F 80% 29.94 in 10.0 mi ENE 9.2 mph - N/A   Clear
3:15 AM 66.0 °F - 60.3 °F 82% 29.93 in 10.0 mi ESE 11.5 mph - N/A   Clear
3:35 AM 65.5 °F - 60.1 °F 83% 29.93 in 10.0 mi East 8.1 mph - N/A   Clear
3:55 AM 64.6 °F - 60.1 °F 85% 29.92 in 10.0 mi East 8.1 mph - N/A   Clear
4:15 AM 63.0 °F - 59.4 °F 88% 29.93 in 10.0 mi ENE 6.9 mph - N/A   Clear
4:35 AM 63.0 °F - 59.2 °F 87% 29.93 in 10.0 mi NE 5.8 mph - N/A   Clear
4:55 AM 62.1 °F - 58.3 °F 87% 29.93 in 10.0 mi NE 4.6 mph - N/A   Clear
5:15 AM 62.1 °F - 58.5 °F 88% 29.94 in 10.0 mi East 5.8 mph - N/A   Clear
5:35 AM 61.3 °F - 58.5 °F 90% 29.94 in 10.0 mi ESE 5.8 mph - N/A   Clear
5:55 AM 61.2 °F - 59.0 °F 93% 29.94 in 7.0 mi East 4.6 mph - N/A   Clear
6:15 AM 61.0 °F - 59.2 °F 94% 29.95 in 5.0 mi Calm Calm - N/A   Clear
6:35 AM 60.6 °F - 59.0 °F 94% 29.97 in 4.0 mi North 6.9 mph - N/A   Clear
6:55 AM 61.2 °F - 59.2 °F 93% 29.97 in 7.0 mi Calm Calm - N/A   Clear
7:15 AM 60.3 °F - 58.3 °F 93% 29.97 in 5.0 mi Calm Calm - N/A   Clear
7:35 AM 61.2 °F - 59.5 °F 94% 29.97 in 3.0 mi East 6.9 mph - N/A   Mostly Cloudy
7:55 AM 64.4 °F - 62.6 °F 94% 30.00 in 2.5 mi NNW 8.1 mph - N/A   Overcast
8:35 AM 65.7 °F - 63.0 °F 91% 30.00 in 5.0 mi NNE 6.9 mph - N/A   Overcast
8:55 AM 66.7 °F - 63.5 °F 89% 30.02 in 5.0 mi NNE 8.1 mph - N/A   Overcast
9:35 AM 68.0 °F - 63.5 °F 85% 30.02 in 5.0 mi NE 5.8 mph - N/A   Overcast
9:55 AM 69.4 °F - 63.1 °F 80% 30.03 in 10.0 mi NE 5.8 mph - N/A   Mostly Cloudy
10:15 AM 70.5 °F - 63.0 °F 77% 30.03 in 10.0 mi North 4.6 mph - N/A   Overcast
10:35 AM 71.2 °F - 63.0 °F 75% 30.04 in 10.0 mi NNE 6.9 mph - N/A   Overcast
10:55 AM 72.7 °F - 63.1 °F 72% 30.04 in 10.0 mi North 6.9 mph - N/A   Overcast
11:15 AM 74.1 °F - 62.1 °F 66% 30.04 in 10.0 mi North 8.1 mph - N/A   Overcast
11:35 AM 73.9 °F - 61.9 °F 66% 30.05 in 10.0 mi North 6.9 mph - N/A   Overcast
11:55 AM 75.9 °F - 61.3 °F 60% 30.05 in 10.0 mi NNE 6.9 mph 10.4 mph N/A   Overcast
12:15 PM 77.2 °F - 61.0 °F 57% 30.04 in 10.0 mi ENE 5.8 mph - N/A   Overcast
12:35 PM 77.5 °F - 61.3 °F 57% 30.04 in 10.0 mi East 5.8 mph - N/A   Mostly Cloudy
12:55 PM 77.5 °F - 61.3 °F 57% 30.04 in 10.0 mi NE 5.8 mph - N/A   Scattered Clouds
1:15 PM 79.7 °F - 61.2 °F 53% 30.04 in 10.0 mi NE 10.4 mph - N/A   Scattered Clouds
1:35 PM 80.2 °F 81.1 °F 60.6 °F 51% 30.04 in 10.0 mi East 6.9 mph - N/A   Mostly Cloudy
1:55 PM 82.2 °F 82.6 °F 60.3 °F 47% 30.04 in 10.0 mi ENE 8.1 mph - N/A   Scattered Clouds
2:15 PM 80.6 °F 81.2 °F 60.1 °F 49% 30.03 in 10.0 mi Calm Calm - N/A   Scattered Clouds
2:35 PM 81.7 °F 81.9 °F 59.0 °F 46% 30.03 in 10.0 mi Calm Calm - N/A   Mostly Cloudy
2:55 PM 84.7 °F 84.2 °F 58.3 °F 41% 30.03 in 10.0 mi SE 6.9 mph - N/A   Scattered Clouds
3:15 PM 83.8 °F 83.4 °F 58.6 °F 42% 30.02 in 10.0 mi ENE 5.8 mph - N/A   Scattered Clouds
3:35 PM 86.4 °F 85.2 °F 57.6 °F 37% 30.02 in 10.0 mi South 6.9 mph - N/A   Scattered Clouds
3:55 PM 86.9 °F 85.9 °F 57.6 °F 37% 30.00 in 10.0 mi East 8.1 mph - N/A   Scattered Clouds
4:15 PM 88.0 °F 86.5 °F 55.9 °F 34% 30.00 in 10.0 mi Calm Calm - N/A   Clear
4:35 PM 90.0 °F 88.1 °F 55.2 °F 31% 30.00 in 10.0 mi SSE 4.6 mph - N/A   Scattered Clouds
4:55 PM 90.3 °F 88.1 °F 54.3 °F 29% 29.99 in 10.0 mi West 3.5 mph - N/A   Scattered Clouds
5:15 PM 90.3 °F 87.9 °F 53.4 °F 28% 29.99 in 10.0 mi South 6.9 mph - N/A   Scattered Clouds
5:35 PM 89.8 °F - 52.9 °F 28% 29.99 in 10.0 mi SE 3.5 mph - N/A   Scattered Clouds
5:55 PM 90.1 °F - 51.3 °F 26% 29.98 in 10.0 mi Calm Calm - N/A   Clear
6:15 PM 91.4 °F - 51.1 °F 25% 29.97 in 10.0 mi East 8.1 mph - N/A   Clear
6:35 PM 92.3 °F - 50.4 °F 24% 29.97 in 10.0 mi East 11.5 mph 17.3 mph N/A   Clear
6:55 PM 90.9 °F - 50.4 °F 25% 29.96 in 10.0 mi SE 5.8 mph - N/A   Clear
7:15 PM 90.9 °F - 49.3 °F 24% 29.95 in 10.0 mi East 11.5 mph 17.3 mph N/A   Clear
7:35 PM 90.5 °F - 48.6 °F 24% 29.95 in 10.0 mi ESE 13.8 mph - N/A   Clear
7:55 PM 89.8 °F - 47.3 °F 23% 29.95 in 10.0 mi ESE 13.8 mph - N/A   Clear
8:15 PM 88.7 °F - 47.1 °F 24% 29.95 in 10.0 mi SE 12.7 mph 18.4 mph N/A   Clear
8:35 PM 87.3 °F - 46.8 °F 24% 29.95 in 10.0 mi SE 10.4 mph - N/A   Clear
8:55 PM 84.7 °F - 46.9 °F 27% 29.95 in 10.0 mi SE 9.2 mph - N/A   Clear
9:15 PM 80.2 °F - 47.5 °F 32% 29.95 in 10.0 mi SE 9.2 mph - N/A   Clear
9:35 PM 80.4 °F - 49.1 °F 33% 29.96 in 10.0 mi SE 10.4 mph - N/A   Clear
9:55 PM 79.0 °F - 50.4 °F 37% 29.97 in 10.0 mi SE 10.4 mph - N/A   Clear
10:15 PM 78.8 °F - 52.5 °F 40% 29.97 in 10.0 mi SE 15.0 mph - N/A   Clear
10:35 PM 78.4 °F - 54.0 °F 43% 29.98 in 10.0 mi SSE 11.5 mph - N/A   Clear
10:55 PM 76.6 °F - 55.6 °F 48% 29.99 in 10.0 mi SSE 13.8 mph - N/A   Clear
11:15 PM 75.7 °F - 57.4 °F 53% 29.99 in 10.0 mi SSE 12.7 mph - N/A   Clear
11:35 PM 74.7 °F - 58.8 °F 58% 29.99 in 10.0 mi SSE 12.7 mph - N/A   Clear
11:55 PM 73.8 °F - 59.5 °F 61% 29.99 in 10.0 mi SSE 11.5 mph - N/A   Clear